Showing default

FENGYUN 3G, 56232

Orbit data source: Space-Track

FENGYUN 3G, 56232 is a payload satellite owned by CNMSC (CN) in LEO that was launched on Sun, 16 Apr 2023 UTC via a CHANG ZHENG 4B launch vehicle from the Jiuquan Satellite Launch Center, China (JSC). Payload-class satellites include a variety of spacecraft equipped with specific instruments for various scientific and technological missions. These include communications satellites like Starlink; space stations such as the ISS; scientific satellites like the Hubble; Earth observation satellites from companies like Planet Labs, Umbra, and HawkEye 360; GPS; miniature CubeSats for education and research; and military/defense satellites.

Loading next visibility...
Identifier
56232, 2023-055A
Orbit
LEO
Country
Flag of CNCN / PRC
Related business
Manufacturer
SISE
Mission
Operational Civil Weather
Bus & Motor
SAST-3000, Unknown motor
Mass
3,850 kg wet, 3,110 kg dry
Launch date (UTC)
2023-04-16 (2 years ago)
Launch vehicle
CHANG ZHENG 4B
Launch site
Jiuquan Satellite Launch Center, China (JSC)
Object type
Payload
Rocket body
Debris
Shape & HBR
Box + 2 Pan, 5.0 m
Radar Cross Section
15.104 m², Large (>1 m²)

Expand to show TLE details & history
Last TLE update: 1 day ago

TLE from 1 day ago
0 FENGYUN 3G
1 56232U 23055A   25259.99461184  .00028557  00000-0  43006-3 0  9991
2 56232  49.9954 314.7046 0016338 108.6548 251.6196 15.54383632137548
Epoch: 2025-09-16T23:52Z
TLE epoch observation values (Epoch: 2025-09-16T23:52:14.462Z)
Latitude
0.00001°
Longitude
-39.53257°
Altitude
408.016 km
Speed
7.665 km/s
True Right ascension
20h 58m 49s
True Declination
0° 00' 00"
Sunlit
Object was in full shadow at epoch
Visualization orbit readout
Latitude
Unknown
Longitude
Unknown
Altitude
Unknown
Speed
Unknown
Apparent Right ascension
Unknown
Apparent Declination
Unknown
Sunlit
N/A
Visualization observer readout
Local Sidereal Time
21:22:04
Azimuth
Unknown
Elevation
Unknown
Doppler factor
Unknown
Orbital elements
Apogee altitude
415.809 km
Perigee altitude
393.646 km
Semi-major axis
6,782.865 km
Eccentricity
0.00163
Inclination
49.9954°
RAAN
314.7046°
Arg. of periapsis
108.6548°
True anomaly
251.44205°
Mean anomaly
251.6196°
Eccentric anomaly
251.53081°
Mean motion
3.88529 °/min
Orbital period
92.66 mins
BSTAR
0.00043006
Loading maneuver chart data...
Computing Atmospheric mass density...
Loading historical data...
Loading historical data...
Loading historical data...
Loading historical data...
Loading historical data...
Loading historical data...
Loading historical data...
Other satellites on launch #55 in the year 2023 (2023-04-16 UTC)

Documentation

Showing up to 5 results
|